Погода в Тханг Квиане

Таиланд     12°47′23″N   101°39′00″E
темп.,
°C
ветер,
м/с
пор.,
м/с
влажн.,
%
обл.,
%
осадки,
мм/ч
давл.,
гПа
погр.,
м
14 апреля, ср
ср1401:00+27ююз2382100 3.8 1011186
04:00+27ююз238397 2.7 1009222
07:00+28ю1378100 5.9 1012246
10:00+31ю3362100 0.0 10131036
13:00+31юз646195 0.6 10111216
16:00+29юз3364100 1.2 1009714
19:00+27вюв237596 1.2 1009133
22:00+27ююз237681 0.0 1011197
15 апреля, чт
чт1501:00+27ююз2378100 0.0 1010223
04:00+26ю128198 0.0 1009253
07:00+27ю2378100 0.0 1010321
10:00+31ю4462100 0.0 10121174
13:00+32ю435890 0.0 10091183
16:00+31ю436149 0.0 1007942
19:00+28ю367378 0.0 1008346
22:00+28ююз347443 0.0 1010265
16 апреля, пт
пт1601:00+27ююз347599 0.0 1009266
04:00+27ююз238013 0.1 1009261
07:00+28ю3578100 0.2 1010437
10:00+31ю546465 0.1 10111214
13:00+32ю545965 0.1 10091268
16:00+31ю44647 0.0 1007924
19:00+29ю46779 0.0 1008492
22:00+28ю4678100 1.4 1011477
17 апреля, сб
сб1701:00+27ююз3683100 5.7 1009306
04:00+27ю3583100 6.6 1009311
07:00+26ссв1288100 18.8 1012140
10:00+24св2391100 8.8 1014182
13:00+26св2377100 9.3 1012305
16:00+29с326675 0.1 1010731
19:00+26с238364 0.1 1011182
22:00+25ссв2287100 0.0 1013104
18 апреля, вс
вс1801:00+24всв238698 0.0 1011121
04:00+24с238892 0.0 1011139
07:00+24с2385100 0.0 1013154
10:00+24зсз2291100 1.8 1014179
13:00+26сз1175100 2.0 1011395
16:00+26зюз1279100 0.0 1009181
19:00+25зюз1279100 0.0 1010111
22:00+25зюз128158 0.0 1012165